Retour au catalogue

NIMBUS 2 DEB

ActifSSO
NORAD 42440·DEBRIS·🇺🇸 United States

Lancé May 15, 1966 depuis Vandenberg Space Force Base

Loading…

Prochains Passages (prochaines 24 heures)

TLE

FraisSource: Space-Track

Époque: Sep 13, 2026, 06:10 UTC

1 42440U 66040BT  26256.25711198  .00001225  00000-0  21357-2 0  9995
2 42440 100.2764  82.3377 0047483 326.6278  33.1862 13.45369322515042

Suivez NIMBUS 2 DEB en temps réel avec AllMySat

Download on the App Store